Wind_Speed
1 3 3 3 1 2 3 4 7 9 8 5 3 4 4 3 2 6 8 7 6 6 7 9 10 11 9 10 10 9 11 13 13 15 17 18 17 17 17 17 15 14 13 12 11 8 1 9 15 19 20 22 24 26 28 30 32 33 34 34 35 35 35 36 37 37 37 37 37 38 37 37 37 38 38 38 38 38 37 36 37 37 37 37 36 37 38
3 4 4 2 3 3 4 4 6 8 8 7 6 6 5 4 6 9 9 8 6 4 6 7 8 8 7 8 9 11 13 15 14 15 16 16 15 15 15 14 14 14 14 13 13 15 15 9 0 9 17 22 24 24 26 28 30 32 33 34 35 35 35 36 38 37 37 36 36 36 36 37 38 38 38 38 37 37 37 38 38 37 37 36 36 35 36
4 5 4 4 3 3 4 5 6 7 8 7 5 5 5 5 6 8 7 5 4 4 7 6 6 7 7 10 13 13 13 14 15 15 15 15 15 14 13 13 13 13 14 14 14 15 18 18 15 8 2 14 22 25 25 27 30 31 32 33 33 35 36 36 36 36 36 36 36 36 37 38 38 38 38 38 38 38 37 38 38 38 37 37 37 36 36
4 4 5 6 5 4 4 4 5 5 5 5 3 3 2 1 4 6 4 2 3 5 7 7 6 8 10 12 12 11 10 13 15 15 14 14 14 14 14 13 13 13 13 13 14 16 18 20 20 17 11 1 11 19 22 25 28 30 33 35 35 34 35 36 36 37 36 36 36 37 37 38 38 39 38 38 38 38 38 38 38 37 37 38 38 37 36
3 4 5 6 5 5 4 3 2 2 4 5 4 2 3 3 2 2 1 1 3 5 7 7 7 9 10 10 9 9 9 11 13 13 13 13 13 14 14 14 14 12 12 13 15 17 19 20 22 21 16 10 5 4 10 15 19 20 21 26 32 36 37 36 37 37 36 36 36 37 38 39 39 38 38 38 38 38 38 38 37 37 38 38 38 38 37
3 5 5 6 4 3 4 3 2 3 4 3 2 1 3 5 5 3 3 2 4 6 7 7 6 6 7 6 7 8 8 9 10 11 11 11 12 12 12 14 14 12 13 15 18 21 21 21 23 22 17 14 11 6 2 10 18 19 14 14 20 28 34 37 36 36 36 36 37 38 38 38 38 37 37 38 39 38 38 36 36 37 38 38 38 38 38
2 3 5 4 3 4 4 5 4 3 2 2 1 1 2 5 7 6 5 4 5 5 4 5 5 2 4 5 8 9 9 8 8 10 10 10 11 11 11 12 12 14 18 20 21 23 25 23 21 21 20 18 14 10 3 7 17 23 23 22 21 23 27 32 34 35 36 36 37 37 37 37 36 37 37 38 38 38 37 36 37 38 38 37 38 38 39
0 1 2 1 4 4 6 7 5 1 3 4 1 0 2 5 6 6 5 4 4 5 4 5 6 3 4 4 8 10 9 8 8 8 10 10 10 10 11 12 13 15 20 22 22 24 26 25 21 20 21 20 16 12 7 2 8 13 20 26 28 27 28 30 32 34 35 36 36 36 36 36 36 37 37 37 38 37 36 36 36 36 36 37 38 38 39
2 1 2 2 4 5 5 4 3 3 3 2 1 0 1 3 5 4 4 3 3 4 4 6 9 6 4 3 5 8 8 8 7 7 8 10 11 10 11 12 14 16 18 21 23 24 25 24 21 20 20 18 16 13 10 7 4 5 11 18 23 27 29 32 33 34 35 35 36 36 35 35 36 37 37 37 38 37 35 35 35 35 36 37 38 38 38
2 2 2 3 3 3 3 3 2 3 3 3 1 1 2 1 4 4 4 4 3 4 4 5 9 7 0 1 2 6 7 7 7 8 9 11 12 13 13 13 14 15 17 19 21 22 25 22 18 19 20 17 15 14 12 11 9 6 8 13 17 21 26 30 31 33 35 36 36 35 35 35 36 37 37 37 37 36 36 36 36 36 36 36 37 38 39
2 3 3 3 3 4 4 5 6 6 5 4 2 1 2 1 5 5 5 6 5 4 4 4 5 5 3 2 3 4 6 6 5 6 10 12 14 15 15 15 16 16 16 17 18 22 25 24 20 18 19 18 16 15 14 13 11 10 9 11 13 17 22 26 27 30 33 35 35 35 35 36 37 36 36 37 36 36 36 36 36 36 35 35 36 37 39
3 3 4 3 2 3 3 4 7 8 5 2 2 2 2 3 6 7 6 6 6 5 4 4 3 3 2 4 5 5 6 6 5 4 7 11 15 17 17 16 17 18 16 15 17 20 24 26 25 20 18 17 16 15 15 14 13 13 14 16 16 16 18 22 25 27 29 32 33 34 35 36 36 36 36 36 35 35 36 36 36 35 35 35 36 37 38
4 5 4 3 2 2 2 4 7 7 4 1 3 4 1 3 7 7 5 6 6 5 6 5 3 1 3 5 6 6 6 6 6 6 7 10 14 18 20 18 16 18 18 17 16 18 21 24 24 22 18 16 15 15 15 13 13 15 17 18 19 19 17 18 21 24 27 29 31 32 34 35 35 35 35 35 35 35 36 35 35 34 35 35 36 36 37
2 3 3 4 3 1 1 4 6 4 1 2 3 3 2 3 5 6 6 6 6 5 5 6 5 5 6 6 7 7 6 6 7 8 8 9 13 18 23 22 18 16 17 19 19 20 22 23 22 20 20 18 16 15 14 12 13 16 18 19 19 19 19 17 17 19 23 28 31 32 32 33 32 33 34 34 34 35 35 34 34 35 35 35 35 35 35
1 1 3 4 3 1 1 4 4 1 1 2 3 4 3 2 3 5 5 6 6 6 6 6 7 8 8 7 6 8 8 7 8 9 9 9 10 15 20 23 22 19 16 17 21 22 24 25 23 20 18 18 19 18 16 16 18 19 19 19 19 19 19 18 16 15 16 21 27 30 31 31 32 33 33 33 34 34 34 34 34 34 35 34 33 33 33
2 2 4 3 3 2 1 1 0 2 3 3 3 3 3 2 2 3 4 5 6 7 8 8 8 8 8 7 6 6 8 9 8 9 11 11 11 12 15 19 23 23 18 16 19 23 24 25 24 22 18 17 18 19 20 22 24 23 22 20 20 19 18 17 17 16 16 17 20 25 29 31 32 32 32 32 33 34 34 33 32 32 33 33 32 31 32
3 4 5 4 2 2 2 3 3 4 5 3 2 3 3 2 2 2 4 5 7 7 8 9 8 7 7 9 7 5 6 8 9 10 12 13 12 12 14 17 19 22 22 20 19 21 24 24 23 23 21 18 17 20 23 24 25 24 22 20 19 19 19 18 18 18 18 18 18 21 25 29 31 32 32 32 32 32 33 32 32 31 31 31 31 31 31
3 4 6 6 5 4 3 3 4 4 4 3 2 3 4 3 3 3 4 6 7 7 7 7 8 8 8 9 10 8 5 6 9 11 12 13 14 13 13 15 17 19 22 23 20 19 21 23 24 24 23 18 16 19 22 23 23 22 20 18 18 18 19 20 19 19 19 20 20 20 23 27 31 33 33 32 32 32 32 32 32 32 31 31 31 31 31
2 3 4 4 4 4 4 5 5 4 4 3 3 3 4 5 5 5 6 7 8 8 7 6 7 8 9 10 10 9 6 5 7 9 12 14 14 14 14 15 16 16 18 20 20 20 21 22 24 25 24 20 17 18 19 20 21 20 18 17 17 17 18 20 21 21 20 21 21 21 22 26 30 32 33 33 32 31 31 32 32 32 31 30 30 30 31
3 5 6 5 5 6 6 5 4 3 3 5 5 4 5 6 7 7 7 8 7 7 7 7 7 8 8 9 10 10 8 6 6 8 12 15 15 16 17 17 16 15 14 16 18 20 21 22 24 25 25 23 20 19 18 18 18 19 19 17 17 18 19 19 20 21 21 21 22 22 23 25 29 32 32 33 33 34 35 36 34 32 31 31 32 33 33
3 7 7 5 5 7 6 4 5 3 3 5 7 7 7 8 8 9 9 9 9 9 9 8 8 8 8 7 9 11 9 7 7 10 14 17 18 18 19 18 17 15 14 15 17 19 21 23 24 24 25 25 23 21 18 17 17 18 19 19 19 19 19 18 18 19 20 21 22 23 23 24 29 33 35 36 37 37 40 42 41 38 36 36 37 38 36
4 7 5 3 2 5 5 4 5 4 3 4 7 8 9 9 10 10 10 11 11 12 12 11 9 9 8 7 8 11 11 9 10 13 16 18 20 21 20 19 18 16 14 14 16 18 20 22 23 23 24 25 25 22 19 18 18 18 19 20 19 17 17 17 16 17 18 21 24 25 23 23 26 31 35 39 40 40 40 42 45 46 44 43 44 42 39
6 8 7 5 4 4 6 5 5 5 4 4 6 8 8 9 10 10 11 12 12 11 13 14 13 11 10 10 10 10 12 15 17 16 16 18 20 22 22 19 18 18 16 15 15 18 20 22 23 24 24 24 24 22 20 19 19 19 19 19 18 17 16 16 17 17 19 23 25 26 25 23 23 26 29 33 38 41 41 41 43 47 49 50 49 45 41
6 6 6 6 5 5 6 5 5 5 4 4 6 7 8 9 11 11 10 11 13 12 11 14 16 15 13 14 13 10 13 20 22 19 18 19 21 22 22 19 18 18 17 15 15 18 20 21 22 24 25 24 23 22 22 21 21 21 21 18 17 17 17 17 17 18 20 23 25 25 25 24 23 23 24 26 30 36 40 40 40 43 48 51 51 47 45
6 5 5 6 6 7 6 4 4 5 7 7 6 7 8 10 13 14 12 12 14 16 13 12 16 19 18 17 17 15 15 20 24 23 19 19 20 20 19 19 19 18 17 16 16 17 18 20 21 22 23 24 23 22 22 22 22 22 21 18 17 18 18 18 18 18 19 22 24 24 24 22 22 23 23 23 23 27 32 36 37 38 42 47 49 49 47
6 4 4 2 3 5 3 3 4 5 7 8 6 7 11 15 17 18 17 16 17 19 18 16 18 20 20 19 19 19 18 21 24 24 21 18 18 18 18 20 21 18 15 15 16 14 14 17 19 20 21 22 22 21 21 21 21 21 21 19 18 18 17 17 18 18 19 20 21 21 19 18 20 23 25 26 25 24 25 27 29 32 36 41 45 48 48
5 4 5 2 4 5 5 5 6 6 7 7 7 9 14 17 18 19 19 19 19 21 21 20 20 19 19 19 19 19 19 20 21 21 20 19 19 20 22 23 21 16 14 15 14 12 11 14 17 18 19 21 22 22 21 20 19 20 21 20 20 19 18 17 17 17 19 19 19 18 17 15 15 18 22 25 26 26 25 24 26 29 33 37 40 44 47
5 5 6 5 6 7 6 6 7 7 8 9 9 11 15 16 15 15 15 15 16 19 20 20 19 18 17 18 18 17 16 17 17 18 20 21 22 24 24 22 16 13 14 15 13 11 11 13 15 16 18 20 23 23 21 20 20 20 20 20 20 20 19 18 17 17 18 18 18 17 18 17 17 19 21 23 24 25 26 26 27 28 28 29 32 36 41
5 5 6 7 8 7 5 5 5 6 8 9 10 11 12 12 12 12 12 12 14 15 17 18 19 19 18 19 18 16 13 13 16 19 21 23 25 25 22 17 13 12 13 13 12 11 11 11 13 15 17 20 23 22 21 20 20 20 20 19 19 19 20 19 19 18 18 19 20 21 20 21 21 22 23 23 23 25 25 24 25 25 23 23 25 29 34
5 5 6 7 7 6 5 5 6 7 7 7 7 8 9 10 11 11 12 12 12 13 16 18 18 18 17 18 18 17 15 16 19 22 23 25 25 22 18 13 9 9 10 10 10 12 11 10 11 14 17 20 22 22 21 20 19 18 18 17 17 18 19 19 20 20 19 19 22 24 25 25 25 23 23 23 24 25 25 25 25 25 24 24 25 27 30
6 5 5 6 6 5 6 6 6 6 6 5 6 7 9 10 11 12 13 12 11 13 18 19 17 16 16 18 19 20 20 20 21 23 24 26 23 18 14 11 9 7 7 7 8 10 11 10 10 13 16 19 20 20 20 20 19 17 17 16 16 18 19 19 19 19 19 19 21 24 26 27 26 24 24 25 24 23 23 23 23 24 25 25 27 28 29
5 4 5 5 5 5 6 6 5 6 7 6 5 7 8 9 11 13 13 12 13 16 19 18 16 16 18 20 20 20 20 20 21 22 24 22 17 14 12 10 8 7 5 3 5 8 9 9 10 13 17 19 19 18 18 19 18 17 16 16 16 16 17 18 18 19 19 20 21 23 24 26 25 24 23 24 24 22 21 20 19 21 23 25 27 30 30
6 4 4 5 5 5 6 6 5 6 6 5 5 6 8 10 11 12 13 15 17 18 18 17 17 20 22 21 20 21 20 19 19 20 19 15 13 12 10 8 7 6 3 1 4 6 7 8 9 13 17 18 17 17 17 18 17 16 15 14 14 14 16 17 17 17 17 18 19 21 23 25 26 23 21 21 21 21 22 22 22 23 25 25 25 27 28
8 6 6 6 6 5 6 5 5 5 5 5 6 7 9 11 12 14 16 18 17 17 17 18 21 23 23 21 19 18 17 15 13 12 11 12 13 11 9 9 8 6 2 2 6 7 7 8 10 13 15 15 15 15 17 17 16 15 14 13 13 13 14 15 16 16 16 17 18 19 21 25 26 23 20 20 20 20 21 23 25 26 25 22 21 21 21
8 6 6 8 7 7 6 5 4 4 4 5 6 7 10 13 14 16 19 20 19 20 22 25 26 24 20 18 18 18 17 14 11 10 12 13 12 11 11 10 7 4 2 3 7 9 9 9 10 11 13 13 12 13 16 17 15 13 12 12 12 12 13 14 16 16 16 17 18 18 18 21 25 24 21 19 21 23 24 24 24 24 22 20 19 18 17
8 5 5 7 8 7 7 7 6 6 5 5 7 8 11 14 16 18 20 22 23 24 27 28 25 17 8 2 2 4 4 3 4 10 14 13 12 12 11 8 6 3 1 4 8 10 10 9 9 9 10 11 12 12 14 16 13 11 11 12 12 12 14 15 16 18 19 19 19 18 17 17 19 22 22 20 21 24 25 25 23 22 22 21 19 19 18
10 9 7 7 8 7 8 9 9 8 7 7 9 10 12 15 17 20 22 22 22 24 26 25 19 11 10 15 17 15 13 11 10 11 13 12 11 12 11 9 7 5 3 5 9 10 10 9 9 7 9 11 12 12 13 15 13 10 11 12 13 14 16 17 18 20 20 21 21 20 18 17 14 13 15 18 21 22 22 21 19 18 18 19 20 21 23
10 10 10 9 8 8 9 10 10 9 7 8 10 13 14 16 19 21 21 20 21 24 24 21 17 14 15 17 19 17 15 13 13 13 15 14 12 11 11 10 9 7 6 7 9 10 9 9 8 7 9 12 12 12 12 14 12 11 13 14 15 16 17 19 20 22 22 23 23 23 22 22 21 17 10 4 9 12 13 14 17 19 21 22 23 25 27
7 7 8 8 8 8 9 10 10 9 7 7 10 13 15 18 20 20 17 18 21 24 24 20 17 17 16 15 14 14 14 14 13 12 13 13 12 10 10 10 10 9 8 8 10 9 9 9 9 9 11 12 12 12 12 12 12 13 15 17 17 18 18 19 22 24 25 25 26 26 26 26 26 25 22 16 9 9 12 14 19 23 25 26 27 28 30
5 6 7 7 7 7 8 8 9 9 7 7 10 13 15 18 19 17 14 16 20 23 23 20 16 14 14 13 12 13 15 16 15 13 13 12 10 8 7 9 11 11 9 10 11 10 9 10 11 12 13 13 12 11 11 11 13 15 17 19 20 20 20 20 22 24 25 26 29 29 29 28 29 29 28 24 20 17 16 16 18 22 25 27 28 28 30
6 7 7 6 6 7 7 7 8 7 5 6 9 12 15 18 18 15 13 15 19 22 22 21 18 16 15 15 13 13 15 17 17 17 15 12 9 6 6 9 13 13 11 11 12 12 11 12 14 14 14 14 13 11 11 12 14 16 17 18 20 22 22 23 24 25 24 25 27 29 30 30 31 32 31 28 25 23 20 19 18 19 22 25 26 28 31
7 8 7 6 5 5 5 6 6 4 1 4 9 12 14 16 17 15 13 15 18 20 21 21 20 19 18 17 16 15 15 15 15 16 17 16 13 10 8 10 15 14 11 12 15 16 15 16 17 16 15 14 13 12 13 15 17 17 17 18 19 22 24 24 25 25 26 26 27 28 29 29 30 32 33 32 29 27 25 24 22 20 21 23 25 28 30
9 10 9 7 6 5 4 5 6 5 1 3 7 11 13 15 16 14 13 14 16 17 19 20 20 20 20 19 18 17 17 16 15 14 14 16 18 17 14 13 15 15 13 14 17 18 18 18 18 17 16 16 15 15 17 19 18 18 18 18 19 21 24 25 25 25 27 28 29 30 30 29 28 30 33 33 31 30 29 28 26 23 22 23 26 28 30
11 11 10 8 6 5 4 6 7 6 3 2 6 10 13 14 15 14 14 15 15 15 16 18 18 18 19 19 17 16 16 17 17 14 11 11 15 18 18 17 16 16 15 16 18 20 20 20 19 18 18 19 18 18 20 21 20 18 18 18 19 22 25 26 26 26 27 28 29 31 33 32 29 28 30 32 33 31 30 31 29 26 24 24 27 29 30
12 11 10 8 6 6 6 7 9 8 5 4 6 10 12 13 14 14 15 15 14 14 16 18 18 18 17 17 16 16 18 19 20 18 13 9 9 13 17 18 18 18 19 19 20 21 21 21 20 20 20 21 21 22 23 22 21 20 20 20 21 23 25 27 28 28 29 29 30 31 34 34 32 29 29 32 33 32 30 31 32 30 27 26 28 29 29
11 10 10 8 7 6 5 6 9 9 7 5 6 9 11 12 12 13 13 13 13 14 15 16 17 18 18 17 16 16 19 21 23 24 21 16 14 15 17 19 19 19 20 22 24 23 22 21 22 22 23 23 24 25 24 23 22 22 21 21 23 25 26 27 28 29 30 30 30 31 32 34 34 33 33 33 34 33 31 31 33 33 29 27 26 28 29
11 10 9 8 7 6 5 8 11 11 8 5 5 7 9 10 12 12 11 11 11 12 13 14 15 16 17 17 17 16 17 18 21 24 25 24 21 20 19 19 19 20 21 23 24 24 24 24 25 25 24 25 26 27 25 23 23 23 22 22 24 26 27 28 29 30 31 31 31 31 32 33 34 34 34 35 35 35 32 30 31 33 31 27 26 29 31
12 11 10 9 7 7 7 9 11 10 7 5 5 6 7 9 10 10 10 10 10 12 13 15 16 16 16 17 17 17 17 16 16 19 23 25 24 22 21 20 20 20 22 23 23 24 26 27 27 26 26 27 28 27 26 24 23 23 23 23 24 26 27 28 29 29 30 31 32 32 32 32 32 32 33 33 34 34 33 30 29 31 32 30 29 31 33
12 11 10 9 7 6 7 9 10 9 9 8 7 6 6 7 7 7 7 8 9 11 12 14 14 15 16 16 16 17 18 18 17 17 20 23 24 24 23 22 21 21 22 23 24 25 27 28 28 27 26 27 27 27 26 24 24 24 25 25 26 27 29 29 30 30 30 31 31 32 32 31 30 30 31 32 32 33 33 31 29 30 31 31 31 32 33
12 11 10 8 5 4 5 7 7 10 12 13 10 7 5 5 4 4 4 5 6 8 10 11 11 12 14 15 15 16 17 18 18 18 19 21 22 23 24 24 24 23 23 23 24 25 26 28 29 28 26 26 26 27 26 24 23 24 25 27 28 29 30 31 31 32 32 32 32 33 33 33 33 32 32 33 33 34 35 34 32 32 32 33 32 32 32
12 12 9 7 5 4 5 5 5 9 14 15 13 9 5 4 3 4 4 4 5 6 8 10 10 10 11 13 15 16 16 16 17 17 18 19 20 22 23 24 25 25 26 25 25 24 25 26 27 27 26 25 26 26 26 24 23 24 25 26 27 28 29 30 31 32 32 32 33 34 34 34 34 34 33 33 33 33 34 35 35 34 33 33 32 32 32
11 10 8 7 5 4 4 4 4 8 12 14 13 10 6 4 4 4 4 4 5 6 7 7 8 8 8 9 11 14 15 15 15 16 16 16 17 19 20 21 23 24 25 26 26 26 25 25 26 26 26 26 25 26 26 26 25 24 25 26 26 27 27 29 30 31 32 32 33 33 33 34 34 34 33 32 32 32 32 32 32 32 31 31 30 30 30
Wind_Direction
256 239 263 289 328 321 310 317 315 311 309 300 278 250 222 155 127 252 273 313 315 309 347 7 0 353 1 6 354 359 22 24 20 24 24 21 21 19 19 18 17 19 21 18 13 15 83 181 194 202 203 204 204 204 204 203 203 203 202 201 203 204 205 207 210 212 213 213 215 216 217 218 219 221 223 224 225 226 227 229 232 234 235 235 236 236 237
325 294 296 348 27 340 314 309 298 298 299 282 259 248 230 205 218 242 266 286 283 318 2 10 12 0 355 11 11 11 21 22 20 22 23 20 18 16 15 13 12 13 14 15 14 12 13 16 51 195 198 200 201 203 204 204 204 204 203 203 203 204 206 209 210 212 212 213 214 215 216 218 219 221 223 224 226 227 227 228 230 232 234 236 236 237 238
323 305 326 354 351 309 294 292 282 283 294 293 275 258 246 226 239 255 265 273 280 331 360 10 21 12 9 24 26 21 18 18 20 23 21 17 15 11 8 8 11 12 12 12 12 10 5 360 1 11 181 197 199 201 202 202 204 204 203 204 205 205 208 210 211 212 212 212 214 215 216 218 219 220 222 223 225 227 228 230 231 231 233 234 236 237 238
302 303 339 336 327 320 292 272 268 268 290 308 297 282 285 220 238 259 272 300 306 325 348 4 17 23 28 28 24 21 17 17 21 21 16 13 10 6 1 2 6 9 10 10 8 2 356 351 352 357 5 50 186 195 199 201 203 204 203 203 204 207 210 210 211 212 212 212 213 214 216 217 218 220 221 222 224 225 227 229 230 231 232 233 235 236 237
283 292 327 331 343 345 299 263 281 280 289 305 296 307 10 11 305 261 260 6 320 330 353 2 12 29 34 28 24 21 12 16 22 17 12 11 7 4 360 355 357 5 8 5 360 353 350 348 347 348 354 11 40 162 187 192 194 199 208 209 207 206 209 211 212 211 211 212 213 214 216 217 218 219 220 221 223 224 226 228 229 230 232 233 234 235 235
269 286 336 349 346 317 253 243 317 299 295 319 315 344 16 8 9 56 103 66 354 355 7 1 2 34 44 30 30 28 15 17 18 9 9 12 5 3 359 351 348 352 357 357 352 347 346 345 344 347 355 6 11 19 157 188 188 190 204 227 230 220 212 210 211 211 211 212 213 215 217 217 218 218 219 221 223 224 226 226 227 229 231 232 233 235 235
240 305 20 9 288 243 261 295 301 288 339 31 79 143 43 25 23 33 53 45 13 360 359 344 337 42 93 58 39 29 19 20 16 0 358 7 9 3 354 346 343 344 346 347 344 341 341 340 339 343 350 357 3 11 11 203 197 195 198 208 228 237 227 216 212 212 212 213 214 216 217 217 218 218 219 221 223 224 225 225 226 228 229 231 232 233 235
141 22 70 202 244 265 299 312 310 333 24 22 18 227 18 30 33 26 20 25 9 348 346 338 320 264 176 101 48 31 14 12 19 7 350 353 3 1 347 338 335 339 340 338 335 333 332 333 335 337 341 346 354 4 8 273 217 210 209 209 211 219 225 222 216 213 213 213 214 216 216 216 217 218 220 221 223 223 224 225 227 228 228 230 231 232 234
139 152 216 252 319 324 316 326 359 25 9 352 6 227 300 13 41 28 0 357 353 352 357 344 327 303 210 153 46 27 8 358 6 5 349 347 351 349 342 333 329 334 336 333 331 328 323 324 330 333 337 344 349 356 6 359 320 258 240 235 225 218 220 221 218 215 214 214 216 217 216 216 218 219 220 221 222 222 223 224 226 227 228 229 230 231 232
136 153 255 297 329 302 266 268 309 330 295 264 229 178 244 345 32 16 349 343 338 351 11 348 333 336 355 167 7 8 357 345 347 350 348 349 348 341 338 335 333 334 337 333 328 320 315 317 329 338 341 347 349 352 2 3 348 318 273 260 250 236 229 225 220 217 216 216 217 217 217 217 219 220 220 222 222 222 221 223 225 227 228 229 230 230 231
138 154 220 241 228 232 244 269 290 300 280 244 197 174 241 335 16 0 346 343 332 334 2 6 359 12 21 326 313 336 338 334 341 341 337 341 344 340 336 338 337 335 336 332 327 323 320 321 332 348 351 349 348 350 354 354 348 339 324 305 285 260 243 234 228 223 220 219 219 218 219 219 220 220 221 222 223 222 222 223 226 227 228 229 230 231 231
193 193 221 230 225 231 234 266 290 297 295 268 235 254 266 351 351 340 339 341 331 322 338 6 38 44 359 302 297 311 319 320 327 329 325 331 337 335 334 338 338 335 336 335 329 326 324 323 331 346 354 350 346 346 347 348 348 346 340 334 325 301 267 247 238 233 228 226 224 222 222 222 222 222 222 222 221 221 222 223 225 226 228 228 230 232 232
223 223 236 257 267 243 224 255 277 293 316 321 235 234 262 342 323 321 333 341 341 340 338 344 355 303 273 272 281 293 303 311 315 313 313 321 328 328 329 334 339 339 337 334 328 321 317 321 331 341 348 350 347 342 342 345 345 341 337 333 330 323 301 269 251 244 239 235 233 231 228 227 226 224 223 222 221 220 220 222 223 224 226 228 230 232 233
233 225 242 275 269 228 269 285 282 286 279 218 234 255 305 301 299 318 335 335 341 351 339 328 317 298 288 283 288 297 303 305 304 304 312 321 327 329 329 332 341 344 337 331 329 326 322 324 330 338 343 346 344 339 338 339 337 335 333 329 325 321 313 295 275 261 252 245 241 238 235 232 229 228 226 224 222 221 220 220 221 223 225 226 228 231 233
182 209 237 259 246 192 14 338 328 333 182 226 273 305 312 300 319 332 331 327 333 336 327 316 310 307 304 298 296 302 304 301 299 303 308 310 317 325 327 329 335 340 337 331 329 327 327 330 334 337 341 343 340 335 332 332 336 337 335 330 323 317 312 305 299 291 275 259 248 241 238 235 232 230 228 225 223 221 219 219 220 222 224 225 226 229 231
157 192 225 226 186 182 191 79 164 244 252 265 290 300 304 329 342 328 317 315 317 319 317 310 306 304 302 299 300 302 303 304 302 302 303 303 308 317 319 321 329 335 334 330 328 326 328 334 336 335 337 339 335 328 326 332 338 338 335 329 321 314 309 304 302 301 295 280 262 248 240 236 233 231 228 225 223 221 219 218 218 220 223 223 224 226 228
201 208 228 232 204 206 208 183 202 247 266 273 286 293 292 292 292 299 304 301 299 303 303 302 302 301 296 298 303 297 290 295 299 300 300 296 297 306 312 316 326 333 331 326 326 327 329 332 334 334 335 335 328 322 325 331 334 331 328 324 317 311 308 303 301 299 296 290 279 262 247 237 232 230 227 224 222 220 219 217 217 220 221 221 221 224 226
273 261 252 254 257 258 243 228 237 248 250 257 293 302 287 275 276 281 282 281 286 288 284 284 293 298 296 297 299 295 281 280 292 300 301 295 291 296 306 314 321 330 331 327 323 325 328 329 330 331 331 329 325 322 323 325 325 322 320 317 312 310 309 305 303 301 297 292 287 276 259 244 235 231 227 223 221 220 218 216 217 219 220 219 220 222 225
292 284 256 234 231 239 253 262 262 252 247 265 286 284 280 283 283 277 273 274 277 276 270 268 274 283 290 295 295 294 290 281 286 297 300 296 293 292 298 308 314 322 327 325 321 322 324 324 324 325 326 327 325 322 321 324 323 319 313 309 306 305 305 302 300 298 295 291 288 281 267 250 238 232 229 224 221 218 216 215 217 218 219 219 219 221 224
209 255 262 255 249 253 254 248 236 237 272 295 297 289 288 292 290 282 277 275 273 269 266 266 266 269 277 286 289 293 293 286 284 292 296 296 294 292 296 302 308 313 318 319 316 314 315 318 318 319 322 325 324 323 325 327 324 316 308 302 299 299 300 297 294 293 292 290 288 283 272 254 239 231 227 223 220 219 217 216 215 216 217 218 220 222 224
258 277 276 274 282 282 265 225 216 237 283 302 304 307 307 303 301 299 292 284 280 274 269 267 269 268 263 265 280 288 289 285 284 288 293 296 295 293 292 295 299 304 308 311 311 308 308 313 316 316 318 321 323 325 327 326 322 315 307 299 296 296 297 295 291 289 290 290 289 285 276 259 243 234 228 223 220 221 221 220 219 218 218 218 221 223 224
263 264 248 205 236 279 267 234 240 267 285 293 299 305 308 306 304 305 302 297 289 280 274 270 269 269 264 255 265 278 281 279 279 283 288 292 293 292 290 289 291 295 298 304 307 305 306 311 314 314 315 318 323 326 326 324 323 318 308 299 293 290 291 293 291 288 289 292 291 288 280 264 247 237 232 227 224 223 224 224 224 223 223 224 226 225 224
232 234 221 188 189 246 255 242 245 258 258 262 280 288 291 294 297 299 301 300 296 287 281 276 270 269 270 263 258 265 276 278 277 277 279 281 284 287 287 283 284 289 295 301 303 303 306 311 314 313 313 315 320 323 324 328 330 325 314 300 288 284 285 287 287 285 286 290 292 291 286 272 253 239 232 229 226 226 226 226 226 226 227 230 231 228 226
232 237 216 187 190 229 243 233 230 244 246 245 260 272 275 280 288 292 293 293 291 288 284 279 275 271 271 269 265 260 270 277 278 277 275 273 275 279 279 275 275 281 288 293 299 303 306 308 311 312 311 313 318 321 325 334 339 333 320 301 285 281 282 281 282 284 285 287 289 290 287 276 258 241 231 226 225 225 225 225 226 227 228 230 232 231 230
215 225 198 183 206 233 242 241 246 257 259 254 257 267 274 280 288 293 294 293 291 289 286 284 281 276 272 270 269 265 265 272 276 277 275 272 270 270 268 265 267 273 281 288 294 301 305 307 311 311 309 312 319 322 327 336 341 333 321 307 295 291 289 286 287 286 282 282 285 288 288 277 258 242 230 223 224 225 225 225 227 228 229 230 231 231 233
209 199 143 140 250 253 252 283 282 257 249 252 256 271 281 287 293 297 296 294 291 287 282 278 277 276 272 267 265 264 264 267 272 275 274 269 263 259 255 258 263 270 278 286 291 298 303 307 311 312 309 312 319 323 326 332 334 328 321 314 308 305 300 296 295 290 283 281 282 286 287 276 258 244 234 226 224 225 224 225 228 231 231 230 230 230 232
207 174 130 123 288 271 241 239 246 245 253 262 269 283 290 293 296 297 293 290 287 285 281 276 275 276 274 272 269 266 265 266 269 272 271 266 260 255 254 257 261 268 278 284 287 292 301 308 313 313 310 312 320 324 325 326 325 323 321 318 316 313 308 300 294 288 285 284 282 279 276 265 249 241 238 233 229 225 222 220 223 228 230 230 228 227 229
201 184 168 191 235 243 236 235 240 251 266 272 275 288 296 298 298 296 293 291 290 288 283 280 279 280 279 278 276 271 269 270 271 271 271 268 262 258 256 254 255 264 278 282 281 287 303 314 315 311 310 316 323 325 324 324 323 321 320 320 319 318 313 306 296 288 284 282 277 270 266 257 242 232 233 234 232 228 226 224 224 227 231 231 228 226 226
209 200 197 214 229 238 258 277 271 265 270 274 281 291 298 300 299 296 293 292 291 290 287 282 277 276 274 274 273 270 267 267 267 267 269 268 264 259 254 249 250 261 271 274 278 291 308 319 315 309 311 321 326 325 324 324 322 318 318 320 320 316 313 308 302 296 288 279 271 265 261 257 247 234 227 228 230 227 225 224 225 226 229 230 227 224 224
217 201 203 225 239 247 260 267 266 267 271 276 284 294 298 298 297 294 294 294 293 292 292 285 276 270 269 269 269 268 265 265 267 267 268 268 266 260 247 236 238 252 255 260 279 298 311 318 313 308 314 324 327 326 326 327 323 317 317 320 318 315 313 309 306 303 296 283 272 265 260 257 252 239 225 222 225 225 222 220 218 218 218 220 220 220 222
204 206 214 229 235 237 243 247 255 265 268 271 285 297 301 301 299 296 296 296 294 293 295 291 282 274 270 269 267 266 264 264 264 264 265 266 262 248 228 218 223 232 233 245 280 300 308 312 313 315 321 327 328 328 330 330 325 320 320 321 320 318 317 315 313 309 303 292 281 271 264 260 257 246 229 219 217 218 219 219 216 212 210 210 212 217 220
182 209 236 247 245 245 250 252 257 266 268 270 282 292 295 297 298 299 300 299 295 293 294 292 285 279 276 272 269 266 264 262 259 259 260 255 239 213 200 206 215 218 220 249 290 297 301 309 320 328 331 331 330 332 334 333 328 323 322 324 325 324 324 325 323 316 309 300 289 278 269 264 262 254 239 228 219 213 214 217 217 214 211 208 210 215 217
161 194 235 241 240 249 259 260 254 256 263 268 268 275 285 291 294 297 298 297 295 294 293 291 287 283 279 273 267 262 258 256 255 253 244 222 190 173 174 181 184 185 192 319 325 313 310 321 336 340 335 332 333 337 339 336 331 327 327 330 333 333 334 336 335 329 320 311 300 288 277 268 263 258 252 244 233 220 213 211 211 212 212 212 213 215 216
177 192 207 208 209 221 236 243 246 249 261 274 274 275 285 293 298 301 300 297 297 299 298 293 288 282 276 268 261 255 252 252 250 234 203 170 149 143 146 147 150 159 161 9 353 339 335 345 352 346 337 334 338 343 343 340 336 333 334 339 343 345 346 348 349 346 340 331 320 306 288 273 263 258 255 251 242 229 217 210 209 209 208 206 206 208 211
195 199 213 219 217 211 207 210 228 242 257 278 281 281 290 299 305 308 307 306 306 306 302 298 294 287 274 259 248 243 243 242 226 179 149 135 128 128 132 132 132 143 146 9 359 352 352 358 359 350 342 342 347 349 348 345 342 343 347 349 351 356 1 2 2 1 357 350 341 327 307 285 269 260 256 249 237 226 217 211 206 203 198 192 189 190 195
195 191 214 229 227 216 207 213 231 243 255 274 280 285 298 308 312 312 310 310 312 312 311 312 313 311 309 308 261 246 243 229 161 131 120 115 113 114 114 110 107 111 85 349 355 358 0 0 358 355 355 354 355 356 355 350 349 355 4 6 7 12 17 19 18 15 12 8 1 349 333 309 282 263 252 243 231 219 212 207 202 194 186 179 173 167 162
194 189 196 217 225 217 213 224 238 250 265 281 289 296 307 314 316 317 317 319 322 324 326 329 335 349 40 61 62 61 59 55 60 76 83 85 87 88 84 76 71 65 31 354 354 360 2 359 357 6 14 8 3 3 1 357 358 13 26 26 26 27 30 33 32 26 22 20 17 12 4 352 330 290 254 233 220 212 207 201 191 176 163 155 147 140 136
195 190 193 210 221 218 218 228 240 252 269 290 301 311 319 321 321 322 326 331 338 341 341 345 356 13 33 52 62 63 59 55 56 60 63 64 64 64 63 56 47 40 25 4 359 2 4 1 4 24 32 21 13 12 8 2 7 26 39 40 39 38 38 42 43 38 33 29 26 25 25 21 12 1 345 260 199 188 183 171 155 142 134 130 127 125 124
187 184 192 208 218 219 222 229 236 246 266 294 307 316 327 329 326 327 335 346 353 355 355 358 11 23 27 34 46 49 46 51 55 55 55 56 51 47 49 46 38 33 24 13 11 13 11 9 21 40 43 32 22 20 19 13 16 32 44 48 47 44 42 45 49 49 45 41 36 33 33 33 30 23 17 19 47 93 112 121 124 123 121 119 118 118 118
179 179 188 204 214 215 216 223 233 245 266 300 314 323 335 337 333 336 352 3 4 5 4 5 14 25 26 27 35 42 45 48 48 46 49 52 46 37 35 32 29 29 27 22 22 21 19 23 36 46 49 42 33 28 29 30 32 40 48 52 53 51 47 47 51 53 52 51 48 43 38 37 38 35 30 27 33 49 67 84 99 107 111 112 113 114 113
183 179 180 194 204 205 212 226 236 244 271 316 330 338 348 349 344 346 5 15 14 13 13 13 18 25 26 25 31 41 47 51 51 48 48 47 40 33 30 23 21 23 27 28 30 31 32 37 44 47 50 50 44 39 47 52 50 49 53 56 57 58 55 53 53 54 54 56 58 55 50 46 44 41 36 32 33 39 48 58 71 86 97 103 106 108 108
169 166 165 168 170 173 194 218 221 217 265 341 348 354 2 3 358 359 15 27 25 21 19 20 23 26 25 24 28 32 36 42 48 50 49 45 39 32 24 18 20 25 30 35 38 41 43 45 48 50 53 55 52 53 63 67 62 58 58 60 62 64 62 59 57 57 55 56 59 60 59 58 56 52 46 39 34 36 44 51 56 66 79 90 96 100 102
158 160 163 162 153 145 165 193 194 187 187 358 2 6 11 14 12 13 26 37 34 27 25 25 26 26 25 24 26 27 25 25 30 39 47 49 45 39 30 22 23 29 36 41 43 44 44 46 50 54 58 59 59 62 68 71 67 63 63 65 66 68 68 64 61 60 60 59 58 59 59 59 60 63 64 58 47 40 42 47 51 57 68 81 88 92 95
161 164 166 161 143 123 135 164 172 166 147 32 18 21 26 27 25 27 39 46 41 34 31 29 26 25 25 25 26 25 22 20 21 24 32 46 47 42 37 33 31 34 39 43 44 45 45 46 51 56 60 62 64 66 68 69 67 65 66 67 69 71 72 70 66 64 65 65 65 65 65 61 58 61 69 73 68 60 53 51 50 50 56 68 79 85 89
165 167 164 154 132 110 120 153 165 160 138 79 45 40 38 37 37 44 54 56 49 42 40 37 33 31 29 27 27 29 31 31 29 26 25 30 35 34 36 39 40 41 43 44 45 45 46 48 51 56 60 63 66 67 67 68 68 67 67 69 70 71 73 73 72 69 68 68 68 69 71 70 66 62 63 69 73 72 69 67 65 59 54 58 69 77 82
164 163 156 147 128 103 111 152 162 154 136 103 67 50 44 47 53 59 63 61 54 50 48 45 41 38 35 32 31 32 36 39 39 35 32 32 31 32 37 42 43 44 47 48 47 46 47 49 51 54 57 62 66 67 65 66 67 67 67 69 72 73 73 74 74 73 72 70 70 71 73 75 74 71 68 69 71 71 71 74 77 74 67 63 67 73 78
160 155 148 143 132 115 123 148 152 145 136 118 85 63 59 64 69 70 69 65 59 53 49 45 43 42 41 40 38 36 36 39 39 36 35 36 36 34 37 41 43 44 48 50 49 48 51 53 53 53 57 61 64 65 63 63 66 67 67 68 73 76 76 76 76 76 76 75 74 74 74 74 75 75 75 74 74 74 72 72 76 79 78 73 72 74 75
161 149 142 143 138 128 134 151 157 156 151 139 117 99 89 84 82 81 79 73 61 52 49 49 49 46 44 45 45 43 42 43 40 33 33 36 38 36 36 39 42 44 48 50 50 51 56 58 57 55 58 62 64 63 62 61 64 66 67 68 71 74 75 76 77 78 79 79 78 76 74 74 75 77 78 78 78 79 79 76 76 80 82 80 77 76 76
155 143 139 142 139 129 131 145 159 168 167 155 142 132 119 104 93 89 84 72 58 52 54 57 57 54 50 49 50 50 51 52 52 44 39 40 41 40 39 41 41 42 45 49 50 51 56 60 61 58 57 60 63 64 63 62 64 66 68 69 70 72 74 76 78 79 80 80 80 80 79 77 76 77 80 82 82 82 83 82 81 83 84 84 81 80 80
145 139 139 141 140 127 115 121 144 165 168 162 155 150 145 130 112 97 87 73 58 48 47 51 57 59 56 53 54 56 57 58 59 55 50 47 46 44 43 44 45 44 45 47 48 49 53 58 60 59 57 59 61 64 64 63 63 66 68 70 71 73 74 76 78 79 80 80 81 82 83 84 83 83 83 85 86 87 90 91 91 91 91 89 88 87 87
147 147 146 144 139 121 90 88 136 170 171 163 156 153 155 153 135 116 103 84 60 43 39 44 52 61 65 62 57 56 57 60 62 61 59 57 55 53 50 49 48 47 47 48 49 50 52 55 57 58 58 58 60 63 64 63 62 64 67 69 70 71 73 75 76 76 77 78 80 81 82 84 85 86 86 86 87 90 93 95 97 97 97 96 96 96 96
151 151 146 142 143 121 83 88 146 172 173 169 167 168 170 163 139 121 111 92 68 54 46 40 40 44 52 56 54 53 56 60 63 65 65 64 63 62 60 57 55 54 53 52 51 52 54 56 58 59 58 58 59 61 62 62 61 62 64 66 68 70 71 73 75 76 76 77 78 79 80 82 83 84 84 85 87 88 89 91 93 95 96 97 97 97 98
Height
829 826 825 824 824 825 824 823 822 817 814 813 813 815 811 811 819 815 800 800 804 796 789 790 788 785 782 780 777 772 766 764 762 760 757 755 754 753 752 751 749 747 745 743 742 740 739 740 741 743 745 748 750 753 756 758 761 763 766 769 772 774 777 778 780 783 786 788 791 793 796 798 800 803 805 807 809 811 813 815 817 819 821 822 823 823 824
828 825 824 824 825 826 824 822 820 816 813 811 810 809 806 806 809 803 798 801 800 795 793 791 788 788 786 782 779 775 771 769 767 766 763 762 761 760 759 758 756 754 751 748 747 745 744 743 742 742 743 744 747 750 753 756 759 762 764 767 769 771 773 775 777 780 783 785 788 791 793 795 796 799 801 804 806 808 810 811 813 815 817 819 820 821 822
831 827 825 825 825 826 825 822 818 815 812 810 808 806 803 803 804 799 797 800 797 794 793 790 790 791 788 784 783 782 779 775 772 771 770 768 766 764 763 763 761 758 755 753 751 750 749 748 746 744 743 743 744 747 750 753 755 758 762 764 766 768 769 771 774 777 779 782 785 787 789 791 793 795 797 800 802 804 806 808 810 811 813 815 816 818 820
835 830 828 827 824 824 823 820 816 814 813 810 807 807 804 804 803 798 797 803 805 801 796 792 792 792 791 791 790 788 786 781 777 777 776 773 771 768 765 765 764 762 759 757 755 754 753 752 750 748 745 744 744 745 747 749 752 755 758 759 762 764 766 769 771 773 776 778 781 783 785 787 789 791 793 796 798 800 801 803 806 808 809 810 812 814 816
838 834 831 827 826 828 825 819 814 812 812 810 807 807 807 807 806 803 805 812 812 806 801 798 797 795 795 795 794 792 790 785 782 781 780 777 774 771 768 767 767 765 763 761 759 757 756 754 753 751 748 745 745 745 746 747 750 753 757 759 760 760 762 765 767 769 773 775 777 779 781 782 784 787 789 791 793 795 797 799 802 804 805 807 808 810 812
838 835 830 829 833 835 826 815 812 811 810 810 809 810 812 811 808 807 810 812 810 806 805 804 802 799 798 797 795 793 791 788 786 785 784 780 776 773 771 770 769 767 765 763 761 758 757 756 754 752 750 748 746 745 745 746 747 750 755 761 764 763 761 762 764 767 770 771 773 775 777 779 781 783 785 786 788 791 793 796 798 799 800 802 804 806 808
838 835 834 837 838 831 820 812 810 808 807 809 810 812 814 814 811 809 809 811 810 808 807 805 802 800 799 797 794 792 791 789 788 788 786 782 779 777 775 774 773 771 767 764 762 759 757 757 756 754 751 749 747 745 745 745 746 746 749 754 761 765 764 763 763 765 766 768 770 772 774 776 778 780 781 783 785 787 789 791 793 794 796 798 800 801 803
838 839 840 838 831 822 815 812 810 809 809 811 812 812 813 814 814 813 812 811 809 808 807 805 801 799 797 796 794 793 792 791 790 791 789 784 781 780 779 777 777 775 771 767 764 760 758 757 757 756 753 750 748 746 744 745 746 747 748 749 750 755 760 762 761 761 763 765 767 769 771 773 774 776 777 779 781 783 786 788 789 790 792 793 795 796 798
837 841 841 834 828 825 821 818 817 817 817 817 818 818 815 813 813 815 814 813 810 808 807 805 800 796 795 797 797 795 794 792 791 792 790 785 782 781 781 781 779 778 775 770 765 762 760 759 758 756 753 751 749 747 746 745 746 747 749 750 749 750 753 756 757 758 760 762 763 765 767 769 770 771 773 774 777 779 782 784 785 786 788 789 790 791 793
834 838 841 838 837 834 827 823 823 821 820 820 820 822 818 812 812 814 814 813 810 808 808 807 801 796 797 800 801 798 796 794 791 790 788 786 783 781 781 782 780 778 776 772 768 765 762 760 760 756 751 750 749 748 746 746 746 747 748 749 750 750 750 751 753 754 756 757 759 761 763 764 766 767 769 771 773 775 777 779 780 782 783 785 786 787 788
835 838 841 840 838 832 827 825 822 820 820 818 820 825 821 813 813 815 814 813 810 807 807 807 804 803 805 807 804 799 796 794 792 791 788 786 784 782 781 781 779 778 777 774 770 765 760 759 760 757 752 750 749 749 748 746 746 746 746 746 747 747 748 749 751 752 752 754 755 757 759 760 761 763 765 767 769 771 773 774 776 778 780 782 782 782 783
835 836 838 836 831 827 827 826 822 819 817 815 821 828 822 815 816 816 814 813 811 807 805 805 806 808 810 808 803 798 796 795 793 792 790 787 785 783 781 780 778 777 776 774 771 766 761 758 757 756 753 750 749 749 749 747 746 744 744 744 744 745 746 747 748 749 750 751 752 753 755 756 757 759 761 763 765 767 768 770 772 774 776 777 778 778 779
836 836 836 833 827 825 827 826 821 817 816 817 823 825 820 818 819 815 813 814 812 809 808 807 807 807 805 803 800 797 796 794 792 791 791 789 787 785 782 780 778 776 774 773 771 768 764 760 756 755 752 750 749 749 749 749 747 744 743 742 742 744 744 745 745 746 746 748 749 750 752 753 754 756 757 759 760 762 763 766 767 769 770 772 773 774 775
839 839 838 834 829 825 825 824 819 816 818 821 822 818 817 820 819 814 814 814 812 812 812 809 808 806 802 801 799 796 795 794 791 789 789 788 787 784 780 777 776 775 773 772 769 765 762 758 756 754 752 749 748 749 750 750 748 745 743 742 742 743 743 743 743 743 743 744 746 747 749 750 752 752 753 755 756 758 760 761 763 764 766 767 768 769 770
841 844 842 837 830 825 823 822 819 818 820 821 819 817 818 818 816 816 816 814 813 813 813 811 809 806 803 801 800 797 794 792 790 788 787 786 786 783 779 775 773 773 772 771 768 764 760 756 754 754 752 749 746 746 747 748 746 743 742 741 741 741 741 741 740 740 741 741 742 743 744 746 748 748 750 751 752 754 755 757 758 760 761 763 764 765 766
838 842 837 828 823 822 822 822 822 821 820 819 818 819 818 817 816 817 817 815 814 813 812 810 809 806 804 801 800 799 796 792 790 789 787 785 785 783 781 778 773 771 770 769 768 764 759 755 753 753 753 749 745 744 744 743 742 740 740 740 740 740 740 739 739 739 739 739 740 740 740 741 743 744 745 747 748 749 751 753 754 755 756 758 760 760 761
830 830 824 818 818 820 821 820 820 820 819 818 818 818 818 818 817 817 816 815 814 813 811 810 807 806 804 800 799 799 797 793 791 789 787 785 784 782 781 778 774 771 767 766 765 763 758 754 752 752 752 750 747 744 741 740 740 740 740 740 739 738 738 738 737 737 737 736 736 736 736 737 738 739 741 743 744 745 747 748 749 750 751 753 754 755 756
827 822 817 817 818 818 818 818 818 818 817 817 817 817 817 817 816 815 815 814 812 811 810 809 806 804 802 799 797 796 796 794 791 788 786 785 783 781 779 777 774 771 766 763 762 760 757 754 752 751 751 751 748 746 743 740 740 741 741 740 739 738 737 735 735 734 733 732 732 732 732 733 733 734 736 737 738 740 742 743 744 744 746 747 749 750 750
830 822 815 815 816 816 816 817 816 815 815 815 815 815 815 814 814 813 813 811 809 808 807 806 805 803 800 798 795 792 792 792 790 788 785 783 781 780 778 775 773 771 767 763 760 758 756 754 752 751 751 750 749 748 745 741 740 740 740 739 738 738 736 734 733 731 730 729 728 728 728 728 729 729 731 732 733 735 736 737 738 739 740 742 743 744 744
828 820 813 814 816 815 814 814 813 813 814 812 812 812 812 811 811 810 809 808 807 805 804 803 802 800 798 797 793 790 788 787 786 785 784 781 780 778 776 774 772 770 767 765 762 759 756 755 753 751 749 748 748 748 745 742 740 739 738 737 735 734 733 732 730 728 727 726 726 725 725 724 724 724 725 727 728 728 729 729 731 732 734 736 737 737 738
824 817 812 813 814 811 810 811 810 810 811 810 809 809 808 808 807 806 805 805 803 802 801 799 798 797 796 794 791 788 785 784 783 783 781 779 777 775 774 773 771 769 767 765 763 760 757 755 753 750 747 746 746 746 743 741 739 737 735 734 732 730 729 728 726 725 724 724 723 722 721 720 719 718 718 719 720 720 721 722 723 725 727 728 729 730 732
820 813 808 809 810 807 806 807 807 807 808 809 808 807 806 806 805 803 802 801 799 798 797 796 794 793 792 791 790 787 783 781 781 781 779 777 775 772 771 770 769 767 766 764 762 760 757 754 752 749 747 745 744 744 743 740 737 734 733 732 730 728 726 725 723 723 722 721 720 718 717 715 714 713 713 714 714 715 715 716 717 719 721 721 721 724 726
809 803 802 806 808 806 804 804 805 806 806 807 807 807 806 804 802 801 800 798 796 794 793 792 791 789 787 787 787 784 780 778 778 778 777 776 772 769 768 767 766 765 764 762 760 758 756 753 751 748 746 744 743 742 741 737 734 732 731 730 728 726 725 723 721 720 720 718 716 714 712 711 710 709 709 710 710 711 711 712 713 715 715 716 717 719 721
801 799 800 804 805 803 802 802 803 804 804 805 805 805 804 802 800 799 798 796 794 791 788 787 786 785 783 782 781 780 777 774 772 773 773 772 770 767 765 764 763 762 761 760 759 756 754 752 750 747 745 743 742 740 737 733 731 730 730 729 727 725 724 722 720 719 718 716 714 711 709 707 705 705 705 705 706 706 707 708 709 710 710 712 714 716 718
797 797 798 801 802 801 800 801 801 802 802 802 802 802 801 800 798 796 795 793 791 788 785 782 781 780 779 777 776 775 772 769 767 767 767 767 766 764 762 761 760 760 759 758 757 755 753 750 748 746 743 741 739 737 734 730 728 728 728 728 726 724 722 721 718 717 716 714 711 709 706 703 701 701 701 701 702 702 703 705 706 707 707 709 711 713 715
795 795 798 801 801 800 801 801 800 799 799 799 800 799 798 796 795 793 792 790 788 786 783 780 777 776 775 773 771 770 768 765 763 761 761 761 762 761 759 758 757 757 757 756 754 753 751 749 746 744 741 738 736 734 731 728 726 726 726 725 723 721 720 718 716 714 713 711 708 706 703 700 698 697 697 698 698 700 701 702 703 704 704 705 707 709 711
794 795 798 801 801 800 799 799 798 796 796 797 797 796 795 794 792 790 788 786 785 782 780 777 774 772 770 769 767 766 764 762 760 758 756 756 756 756 755 754 754 754 754 753 752 750 749 747 745 742 740 737 735 732 729 727 726 725 724 722 719 717 715 713 712 709 708 707 705 703 700 697 694 693 694 694 695 696 697 698 699 699 699 699 701 704 706
793 794 796 798 798 796 795 795 795 795 795 795 795 794 793 791 790 788 785 783 781 779 776 773 771 768 766 765 764 763 761 759 757 755 753 752 751 751 750 750 750 751 750 749 749 747 745 744 743 741 739 737 734 731 729 727 725 723 721 719 715 712 710 709 707 704 703 702 700 698 696 693 690 689 689 690 691 692 693 694 694 695 696 697 699 700 702
791 792 794 794 793 793 793 794 794 794 793 793 792 792 791 790 788 785 782 780 778 775 772 769 767 765 763 761 760 759 758 756 754 752 750 749 747 746 746 747 747 747 747 746 745 744 743 741 740 739 738 736 734 731 728 726 724 721 719 716 713 710 707 705 703 701 699 697 695 693 691 689 687 684 683 685 686 687 688 689 690 692 694 696 697 698 699
789 791 792 792 792 793 794 793 793 792 791 791 791 790 790 788 786 783 780 777 774 771 768 765 762 760 759 757 756 755 754 753 752 750 748 746 744 743 744 744 744 744 744 744 743 741 740 739 738 738 737 735 732 729 727 724 722 719 716 714 710 707 705 702 699 697 695 693 691 689 687 685 684 683 681 681 682 683 683 683 684 686 688 691 693 695 695
787 789 791 791 792 792 792 792 791 791 790 790 789 788 787 786 784 781 777 774 771 768 765 761 758 756 754 753 751 751 750 749 748 747 745 743 741 741 741 741 741 742 743 743 742 741 739 737 736 735 734 732 730 727 724 722 719 717 714 711 707 704 701 698 695 693 691 689 687 685 683 681 681 681 679 677 677 679 681 681 681 682 683 684 686 689 691
786 789 791 791 791 792 791 790 790 790 788 788 788 787 786 784 782 778 775 772 769 765 761 758 754 751 749 748 747 746 746 745 745 743 741 739 738 738 738 738 739 740 741 742 742 741 739 736 734 732 731 729 727 724 722 719 717 714 711 707 704 701 698 695 692 689 687 686 684 682 679 678 678 679 678 676 674 675 677 679 680 681 681 681 681 682 685
787 788 789 789 789 789 789 788 788 788 786 786 786 785 784 783 780 777 773 769 766 762 758 754 750 747 745 744 743 741 741 741 740 738 736 735 735 735 736 736 737 738 739 741 741 741 738 734 731 729 728 726 724 722 720 718 715 712 709 705 701 698 695 693 690 687 685 684 681 678 677 676 676 676 677 677 675 674 673 674 675 676 677 678 679 680 682
783 784 784 784 784 785 786 785 785 785 785 784 784 783 782 780 778 775 771 767 763 759 755 750 746 743 740 738 737 736 737 736 734 732 731 731 732 733 734 734 736 737 738 739 739 738 736 732 729 727 725 724 722 720 718 716 713 711 707 704 700 696 693 691 689 686 683 681 678 675 674 674 673 674 675 676 675 674 672 671 672 673 673 674 676 677 680
780 781 782 782 782 782 783 783 783 783 783 783 783 781 780 779 776 773 770 765 761 756 752 746 741 736 733 731 731 731 731 730 729 728 728 729 730 731 732 733 734 736 737 737 737 735 733 729 726 724 723 722 721 719 717 715 712 709 706 703 699 695 692 689 687 684 682 679 676 675 674 672 671 671 672 673 673 672 671 670 670 671 671 672 672 674 678
779 780 781 781 781 781 781 782 782 782 782 782 781 780 779 777 775 772 768 763 759 755 749 743 737 731 728 726 726 727 728 728 727 726 727 728 729 730 731 732 733 734 735 735 734 732 730 727 724 722 721 720 720 718 717 715 712 708 705 702 699 695 692 689 686 684 681 679 677 676 674 672 670 669 669 670 670 670 670 669 669 668 669 670 671 673 677
778 779 779 779 779 780 780 781 781 781 782 781 781 779 778 776 773 770 767 763 759 754 748 742 737 733 729 727 727 728 730 731 730 728 728 729 730 731 732 732 733 733 733 733 732 730 728 725 723 721 719 719 718 717 716 714 711 708 705 702 699 696 693 689 686 685 683 681 679 677 675 673 671 670 668 668 668 668 668 668 667 667 668 670 672 675 678
776 777 778 778 778 779 779 780 780 781 781 781 780 779 778 776 773 770 766 763 759 754 749 745 741 737 733 730 730 731 733 734 733 732 731 731 733 733 733 733 733 733 733 732 730 728 726 724 721 719 717 717 717 716 714 713 711 708 706 703 700 697 694 691 688 686 685 683 682 680 677 676 675 673 672 670 668 667 667 667 667 668 669 672 674 676 678
776 777 777 777 778 779 779 779 780 780 781 781 780 779 777 776 773 770 767 764 760 756 752 748 745 741 739 736 735 735 736 736 736 735 734 734 735 736 736 735 735 734 733 731 729 727 725 723 720 718 716 716 716 715 714 713 711 709 705 702 699 697 696 693 690 688 687 686 685 683 681 680 678 678 678 676 674 671 670 670 670 670 671 673 675 677 678
775 776 777 777 777 778 779 779 780 780 780 781 780 779 777 776 773 770 768 765 762 758 755 752 749 746 745 743 741 740 739 739 739 738 737 736 738 739 739 737 736 734 733 731 729 727 725 722 719 717 716 716 716 715 714 713 712 709 706 703 700 698 697 695 693 691 690 688 687 686 686 684 683 683 684 684 683 680 678 677 676 675 675 676 678 679 680
774 775 776 777 777 778 779 779 779 780 781 781 780 779 778 776 773 771 769 767 764 761 759 756 753 750 749 748 746 745 743 742 742 741 740 740 740 741 740 738 737 735 733 731 729 727 724 721 719 717 716 716 716 716 715 714 713 711 708 706 703 701 700 699 697 695 695 693 690 689 690 690 688 688 689 691 691 689 688 687 685 684 682 682 683 683 683
774 775 776 777 777 778 779 779 779 780 781 781 780 780 778 776 775 773 771 769 767 765 762 760 757 755 753 751 750 748 746 745 745 744 743 742 741 741 740 739 738 736 734 732 729 727 724 722 720 718 717 717 717 717 716 715 714 713 711 709 707 705 704 702 701 700 700 698 694 692 692 694 694 693 694 697 699 698 696 695 694 693 692 691 690 689 689
774 775 776 777 778 778 779 779 780 780 781 781 781 780 779 777 776 774 772 771 770 768 766 763 761 759 757 755 753 751 749 748 747 746 745 744 743 743 743 742 740 737 735 732 730 727 726 723 721 720 719 718 719 718 717 716 715 715 714 713 711 708 706 705 705 704 703 702 699 697 697 698 699 698 698 701 705 708 707 704 704 705 703 700 697 696 696
774 775 776 777 778 778 779 779 780 780 781 781 782 781 780 778 777 776 775 774 773 771 769 767 765 763 761 759 757 755 754 752 750 748 747 746 745 745 745 744 742 739 736 733 731 729 728 726 724 723 721 720 720 719 719 718 718 717 717 716 714 711 709 708 708 708 708 706 705 703 702 703 705 706 703 702 706 713 716 715 715 717 717 711 706 705 705
773 775 776 777 778 778 779 779 780 780 781 782 782 782 781 780 779 778 777 776 775 774 772 770 768 767 765 764 762 760 758 756 754 752 750 749 748 747 746 745 742 740 737 735 733 731 730 729 727 726 723 722 721 721 721 721 721 721 720 718 717 714 712 710 711 711 711 710 710 708 707 707 711 714 712 707 708 715 720 721 722 725 727 723 719 717 716
774 775 776 777 778 779 779 779 780 781 782 782 783 783 782 782 781 780 779 779 777 776 774 773 772 771 769 767 766 764 761 758 757 755 753 752 751 749 748 746 744 742 739 737 735 734 734 732 730 728 726 725 724 724 724 724 724 724 724 722 720 718 716 715 714 714 714 714 714 714 714 713 715 716 716 715 715 719 724 725 725 727 731 733 732 729 726
774 775 776 777 778 779 779 780 780 781 782 783 783 784 784 784 783 782 781 780 779 778 777 776 775 773 772 770 768 766 764 761 759 757 756 754 753 752 750 748 747 745 743 741 740 738 736 734 733 731 729 728 727 726 727 728 728 727 728 727 725 723 721 720 719 718 718 718 719 720 719 718 718 719 720 721 721 724 729 733 731 730 734 740 740 735 731
774 775 776 777 779 780 780 780 781 782 783 783 784 784 785 784 784 783 783 782 781 780 779 778 777 776 775 773 771 769 767 764 762 761 760 758 756 754 753 751 750 748 747 745 743 741 739 736 735 735 734 732 731 730 731 733 732 732 732 731 729 727 725 724 724 724 724 724 724 724 724 724 725 725 726 727 728 730 734 740 740 737 738 742 742 738 735
774 775 776 778 779 780 781 781 782 782 783 784 784 784 785 785 785 784 784 783 782 782 781 780 779 778 777 775 774 772 769 767 766 765 764 762 759 758 756 754 753 751 750 748 746 744 742 739 739 739 739 737 736 735 736 738 737 736 735 734 732 730 729 729 729 730 730 730 730 730 730 731 733 733 733 733 734 734 737 743 745 744 743 744 743 742 741
774 775 776 778 780 781 781 781 781 782 783 784 784 785 785 785 785 785 784 784 784 783 782 782 781 780 779 777 776 774 772 770 769 768 767 765 763 761 759 757 756 754 753 751 750 749 747 744 744 744 744 743 741 740 741 742 742 741 739 737 735 734 734 734 734 734 735 735 735 736 736 737 738 740 740 740 740 740 742 745 748 749 748 747 747 747 748
775 776 777 779 780 782 782 782 782 782 782 784 785 785 785 785 785 785 785 785 784 784 783 783 782 781 780 778 777 775 774 773 771 770 770 769 767 765 764 762 760 758 756 755 754 753 751 750 749 749 749 748 746 745 746 747 747 745 743 741 740 739 738 738 737 738 738 739 739 739 740 741 742 744 746 747 748 748 749 750 751 752 753 753 752 753 753
776 777 778 780 781 782 783 783 783 783 783 784 785 785 786 786 786 786 786 786 785 785 784 783 783 782 781 780 779 778 776 775 774 773 772 772 771 769 768 766 764 763 762 760 759 757 756 755 754 754 754 753 752 751 750 750 750 749 747 745 744 744 743 743 742 742 742 743 743 743 744 745 745 747 748 750 751 752 753 753 754 755 756 756 756 756 756